Monroe, MI

6:21 AM EDT on March 30, 2017 (GMT -0400)
Custer

Weather History for KTTF - October, 2013

Change the Weather History Date:

Wednesday, October 9, 2013

  Actual Average Record
Temperature  
Mean Temperature 56 °F -  
Max Temperature 69 °F 65 °F 92 °F (1939)
Min Temperature 42 °F 45 °F 30 °F (1989)
Degree Days  
Heating Degree Days 10    
Growing Degree Days 6 (Base 50)    
Moisture  
Dew Point 48 °F    
Average Humidity 79    
Maximum Humidity 100    
Minimum Humidity 40    
Precipitation  
Precipitation 0.00 in - - ()
Sea Level Pressure  
Sea Level Pressure 30.26 in    
Wind  
Wind Speed 2 mph (ESE)    
Max Wind Speed 13 mph    
Max Gust Speed 17 mph    
Visibility 9 miles    
Events Fog    
Averages and records for this station are not official NWS values.
T = Trace of Precipitation, MM = Missing Value Source: NWS Daily Summary

Daily Weather History Graph

Daily Weather History Graph

Search for Another Location

Airport or City:

Trip Planner

Search our weather history database for the weather conditions in past years. The results will help you decide how hot, cold, wet, or windy it might be!

Date:

Astronomy

Oct. 09, 2013 Rise Set
Actual Time 7:39 AM EDT 7:01 PM EDT
Civil Twilight 7:11 AM EDT 7:29 PM EDT
Nautical Twilight 6:39 AM EDT 8:01 PM EDT
Astronomical Twilight 6:06 AM EDT 8:33 PM EDT
Moon 12:37 PM EDT (10/9) 10:31 PM EDT (10/9)
Length of Visible Light 12h 17m
Length of Day
11h 21m
Waxing Crescent, 25% of the Moon is Illuminated
Oct 9
Waxing Crescent
Oct 11
First Quarter
Oct 18
Full
Oct 26
Last Quarter
Nov 3
New

Hourly Weather History & Observations

Time (EDT) Temp. Windchill Dew Point Humidity Pressure Visibility Wind Dir Wind Speed Gust Speed Precip Events Conditions
12:12 AM 48.2 °F - 48.2 °F 100% 30.26 in 10.0 mi Calm Calm - N/A   Clear
12:33 AM 48.2 °F - 46.4 °F 93% 30.25 in 10.0 mi Calm Calm - N/A   Clear
12:53 AM 46.4 °F - 46.4 °F 100% 30.25 in 10.0 mi Calm Calm - N/A   Clear
1:13 AM 46.4 °F - 46.4 °F 100% 30.25 in 10.0 mi Calm Calm - N/A   Clear
1:33 AM 46.4 °F - 46.4 °F 100% 30.25 in 10.0 mi Calm Calm - N/A   Clear
1:55 AM 46.4 °F - 46.4 °F 100% 30.25 in 7.0 mi Calm Calm - N/A   Clear
2:12 AM 46.4 °F - 46.4 °F 100% 30.25 in 10.0 mi Calm Calm - N/A   Clear
2:32 AM 46.4 °F - 44.6 °F 93% 30.25 in 10.0 mi Calm Calm - N/A   Clear
2:53 AM 46.4 °F - 44.6 °F 93% 30.25 in - Calm Calm - N/A   Unknown
3:13 AM 46.4 °F - 44.6 °F 93% 30.25 in 10.0 mi Calm Calm - N/A   Clear
3:33 AM 44.6 °F - 44.6 °F 100% 30.25 in 10.0 mi Calm Calm - N/A   Clear
3:53 AM 44.6 °F - 44.6 °F 100% 30.25 in 10.0 mi Calm Calm - N/A   Clear
4:13 AM 44.6 °F - 44.6 °F 100% 30.26 in 7.0 mi Calm Calm - N/A   Clear
4:33 AM 44.6 °F - 42.8 °F 93% 30.26 in 10.0 mi Calm Calm - N/A   Clear
4:53 AM 44.6 °F - 44.6 °F 100% 30.26 in 10.0 mi Calm Calm - N/A   Clear
5:13 AM 44.6 °F - 44.6 °F 100% 30.26 in 4.0 mi Calm Calm - N/A   Clear
5:33 AM 42.8 °F 41.1 °F 42.8 °F 100% 30.27 in 7.0 mi North 3.5 mph - N/A   Clear
5:54 AM 42.8 °F - 42.8 °F 100% 30.27 in 2.5 mi Calm Calm - N/A   Clear
6:14 AM 44.6 °F - 42.8 °F 93% 30.27 in 7.0 mi Calm Calm - N/A   Clear
6:34 AM 44.6 °F - 42.8 °F 93% 30.27 in 1.0 mi Calm Calm - N/A   Mostly Cloudy
6:54 AM 42.8 °F 41.1 °F 42.8 °F 100% 30.27 in 0.5 mi North 3.5 mph - N/A Fog Fog
7:14 AM 42.8 °F - 42.8 °F 100% 30.27 in 3.0 mi Calm Calm - N/A   Clear
7:34 AM 42.8 °F - 42.8 °F 100% 30.28 in 2.5 mi Calm Calm - N/A   Clear
7:54 AM 42.8 °F - 42.8 °F 100% 30.28 in 1.2 mi Calm Calm - N/A   Mist
8:14 AM 42.8 °F - 42.8 °F 100% 30.28 in 5.0 mi Calm Calm - N/A   Clear
8:34 AM 46.4 °F - 46.4 °F 100% 30.29 in 7.0 mi Calm Calm - N/A   Clear
8:54 AM 48.2 °F - 48.2 °F 100% 30.29 in 4.0 mi Calm Calm - N/A   Clear
9:14 AM 51.8 °F - 51.8 °F 100% 30.30 in 5.0 mi Calm Calm - N/A   Clear
9:35 AM 55.4 °F - 55.4 °F 100% 30.30 in 7.0 mi Calm Calm - N/A   Clear
9:55 AM 59.0 °F - 55.4 °F 88% 30.30 in 10.0 mi Calm Calm - N/A   Clear
10:15 AM 62.6 °F - 57.2 °F 82% 30.30 in 10.0 mi Calm Calm - N/A   Clear
10:35 AM 64.4 °F - 55.4 °F 73% 30.30 in 10.0 mi Calm Calm - N/A   Clear
10:55 AM 66.2 °F - 55.4 °F 68% 30.30 in 10.0 mi Calm Calm - N/A   Clear
11:15 AM 66.2 °F - 55.4 °F 68% 30.30 in 10.0 mi SE 8.1 mph - N/A   Clear
11:35 AM 68.0 °F - 53.6 °F 60% 30.30 in 10.0 mi South 9.2 mph - N/A   Clear
11:55 AM 66.2 °F - 51.8 °F 60% 30.30 in 10.0 mi South 9.2 mph - N/A   Clear
12:16 PM 66.2 °F - 51.8 °F 60% 30.30 in 10.0 mi SSE 8.1 mph - N/A   Clear
12:36 PM 68.0 °F - 51.8 °F 56% 30.30 in 10.0 mi SE 8.1 mph - N/A   Clear
12:56 PM 68.0 °F - 48.2 °F 49% 30.30 in 10.0 mi SE 9.2 mph - N/A   Clear
1:16 PM 68.0 °F - 48.2 °F 49% 30.29 in 10.0 mi SE 5.8 mph - N/A   Clear
1:36 PM 68.0 °F - 46.4 °F 46% 30.29 in 10.0 mi SE 8.1 mph - N/A   Clear
1:56 PM 69.8 °F - 46.4 °F 43% 30.28 in 10.0 mi ESE 10.4 mph - N/A   Clear
2:16 PM 69.8 °F - 48.2 °F 46% 30.27 in 10.0 mi ESE 6.9 mph - N/A   Clear
2:36 PM 69.8 °F - 46.4 °F 43% 30.26 in 10.0 mi East 9.2 mph - N/A   Clear
2:56 PM 69.8 °F - 46.4 °F 43% 30.26 in 10.0 mi ESE 6.9 mph 10.4 mph N/A   Clear
3:16 PM 69.8 °F - 44.6 °F 40% 30.25 in 10.0 mi East 9.2 mph - N/A   Clear
3:32 PM 69.8 °F - 44.6 °F 40% 30.25 in 10.0 mi East 9.2 mph - N/A   Clear
3:52 PM 69.8 °F - 46.4 °F 43% 30.24 in 10.0 mi East 8.1 mph 16.1 mph N/A   Clear
4:12 PM 68.0 °F - 46.4 °F 46% 30.24 in 10.0 mi East 9.2 mph - N/A   Clear
4:32 PM 68.0 °F - 46.4 °F 46% 30.23 in 10.0 mi East 11.5 mph 17.3 mph N/A   Clear
4:52 PM 68.0 °F - 46.4 °F 46% 30.23 in 10.0 mi East 11.5 mph 17.3 mph N/A   Clear
5:12 PM 66.2 °F - 46.4 °F 49% 30.23 in 10.0 mi East 12.7 mph 17.3 mph N/A   Clear
5:32 PM 66.2 °F - 48.2 °F 52% 30.23 in 10.0 mi East 9.2 mph 17.3 mph N/A   Clear
5:53 PM 66.2 °F - 50.0 °F 56% 30.22 in 10.0 mi East 10.4 mph 16.1 mph N/A   Clear
6:13 PM 64.4 °F - 50.0 °F 59% 30.22 in 10.0 mi East 6.9 mph - N/A   Clear
6:33 PM 64.4 °F - 51.8 °F 64% 30.22 in 10.0 mi East 10.4 mph - N/A   Clear
6:53 PM 62.6 °F - 51.8 °F 68% 30.22 in 10.0 mi East 4.6 mph - N/A   Clear
7:13 PM 60.8 °F - 50.0 °F 68% 30.22 in 10.0 mi East 5.8 mph - N/A   Clear
7:33 PM 60.8 °F - 50.0 °F 68% 30.22 in 10.0 mi East 4.6 mph - N/A   Clear
7:53 PM 59.0 °F - 51.8 °F 77% 30.21 in 10.0 mi East 4.6 mph - N/A   Clear
8:13 PM 57.2 °F - 51.8 °F 82% 30.22 in 10.0 mi Calm Calm - N/A   Clear
8:33 PM 55.4 °F - 50.0 °F 82% 30.22 in 10.0 mi Calm Calm - N/A   Clear
8:53 PM 53.6 °F - 48.2 °F 82% 30.22 in 10.0 mi Calm Calm - N/A   Clear
9:14 PM 51.8 °F - 48.2 °F 88% 30.22 in 10.0 mi Calm Calm - N/A   Clear
9:34 PM 51.8 °F - 50.0 °F 94% 30.22 in 10.0 mi Calm Calm - N/A   Clear
9:54 PM 50.0 °F - 48.2 °F 94% 30.22 in 10.0 mi Calm Calm - N/A   Clear
10:14 PM 50.0 °F - 48.2 °F 94% 30.22 in 10.0 mi Calm Calm - N/A   Clear
10:34 PM 50.0 °F - 48.2 °F 94% 30.22 in 10.0 mi Calm Calm - N/A   Clear
10:54 PM 50.0 °F - 48.2 °F 94% 30.22 in 10.0 mi Calm Calm - N/A   Clear
11:14 PM 48.2 °F - 48.2 °F 100% 30.22 in 10.0 mi Calm Calm - N/A   Clear
11:35 PM 48.2 °F - 48.2 °F 100% 30.21 in 10.0 mi Calm Calm - N/A   Clear
11:50 PM 48.2 °F - 48.2 °F 100% 30.21 in 10.0 mi Calm Calm - N/A   Clear